| time (UTC) | temp F | wind direction | speed knots | gust knots | rain 1hr in | rain 24hr in | rain mn in | humidity % | barometer mb |
| 20260507134803 | 44 | 303 | 1.7 | 5.2 | 0.00 | 0.00 | 0.00 | 70 | 1013.4 |
| 20260507134303 | 44 | 343 | 1.7 | 4.3 | 0.00 | 0.00 | 0.00 | 70 | 1013.5 |
| 20260507133803 | 43 | 354 | 1.7 | 4.3 | 0.00 | 0.00 | 0.00 | 70 | 1013.5 |
| 20260507132803 | 42 | 14 | 1.7 | 2.6 | 0.00 | 0.00 | 0.00 | 70 | 1013.6 |
| 20260507132307 | 42 | 318 | 1.7 | 4.3 | 0.00 | 0.00 | 0.00 | 70 | 1013.5 |
| 20260507131803 | 41 | 321 | 1.7 | 2.6 | 0.00 | 0.00 | 0.00 | 70 | 1013.6 |
| 20260507131303 | 40 | 309 | 0.0 | 0.0 | 0.00 | 0.00 | 0.00 | 70 | 1013.6 |
| 20260507130803 | 39 | 0 | 0.0 | 1.7 | 0.00 | 0.00 | 0.00 | 70 | 1013.5 |
| 20260507130303 | 39 | 330 | 0.9 | 2.6 | 0.00 | 0.00 | 0.00 | 70 | 1013.6 |
| 20260507125802 | 38 | 309 | 0.0 | 0.9 | 0.00 | 0.00 | 0.00 | 70 | 1013.6 |
| 20260507125306 | 37 | 309 | 0.0 | 0.9 | 0.00 | 0.00 | 0.00 | 70 | 1013.6 |
| 20260507124303 | 36 | 300 | 0.0 | 0.0 | 0.00 | 0.00 | 0.00 | 70 | 1013.7 |
| 20260507123303 | 34 | 311 | 0.0 | 0.0 | 0.00 | 0.00 | 0.00 | 70 | 1013.7 |
| 20260507122803 | 33 | 346 | 0.0 | 0.0 | 0.00 | 0.00 | 0.00 | 70 | 1013.7 |
| 20260507122306 | 33 | 326 | 0.0 | 0.0 | 0.00 | 0.00 | 0.00 | 70 | 1013.7 |
| 20260507121803 | 32 | 323 | 0.0 | 0.0 | 0.00 | 0.00 | 0.00 | 70 | 1013.7 |
| 20260507121303 | 31 | 315 | 0.0 | 0.0 | 0.00 | 0.00 | 0.00 | 70 | 1013.7 |
| 20260507120803 | 31 | 310 | 0.0 | 0.0 | 0.00 | 0.00 | 0.00 | 70 | 1013.7 |
| 20260507120303 | 30 | 349 | 0.0 | 0.0 | 0.00 | 0.00 | 0.00 | 70 | 1013.7 |
| 20260507115803 | 30 | 321 | 0.0 | 0.0 | 0.00 | 0.00 | 0.00 | 67 | 1013.6 |
| 20260507115306 | 30 | 348 | 0.0 | 0.0 | 0.00 | 0.00 | 0.00 | 67 | 1013.6 |
| 20260507114803 | 29 | 0 | 0.0 | 0.0 | 0.00 | 0.00 | 0.00 | 67 | 1013.6 |
| 20260507113802 | 29 | 0 | 0.0 | 0.0 | 0.00 | 0.00 | 0.00 | 67 | 1013.6 |
| 20260507112803 | 29 | 309 | 0.0 | 0.0 | 0.00 | 0.00 | 0.00 | 67 | 1013.5 |
| 20260507112306 | 28 | 309 | 0.0 | 0.0 | 0.00 | 0.00 | 0.00 | 67 | 1013.5 |
| 20260507111803 | 28 | 309 | 0.0 | 0.0 | 0.00 | 0.00 | 0.00 | 67 | 1013.5 |
| 20260507110804 | 27 | 309 | 0.0 | 0.0 | 0.00 | 0.00 | 0.00 | 67 | 1013.5 |
| 20260507110303 | 27 | 309 | 0.0 | 0.0 | 0.00 | 0.00 | 0.00 | 67 | 1013.5 |
| 20260507105803 | 27 | 309 | 0.0 | 0.0 | 0.00 | 0.00 | 0.00 | 74 | 1013.5 |
| 20260507103803 | 27 | 309 | 0.0 | 0.0 | 0.00 | 0.00 | 0.00 | 74 | 1013.5 |
| 20260507103303 | 27 | 309 | 0.0 | 0.0 | 0.00 | 0.00 | 0.00 | 74 | 1013.5 |
| 20260507102306 | 27 | 309 | 0.0 | 0.0 | 0.00 | 0.00 | 0.00 | 74 | 1013.5 |
| 20260507101803 | 27 | 309 | 0.0 | 0.0 | 0.00 | 0.00 | 0.00 | 74 | 1013.6 |
| 20260507100803 | 27 | 309 | 0.0 | 0.0 | 0.00 | 0.00 | 0.00 | 74 | 1013.5 |
| 20260507100303 | 27 | 309 | 0.0 | 0.0 | 0.00 | 0.00 | 0.00 | 74 | 1013.5 |
| 20260507095803 | 27 | 309 | 0.0 | 0.0 | 0.00 | 0.00 | 0.00 | 76 | 1013.6 |
| 20260507095305 | 27 | 309 | 0.0 | 0.0 | 0.00 | 0.00 | 0.00 | 76 | 1013.7 |
| 20260507094803 | 27 | 309 | 0.0 | 0.0 | 0.00 | 0.00 | 0.00 | 76 | 1013.7 |
| 20260507094303 | 27 | 309 | 0.0 | 0.0 | 0.00 | 0.00 | 0.00 | 76 | 1013.8 |
| 20260507093802 | 27 | 309 | 0.0 | 0.0 | 0.00 | 0.00 | 0.00 | 76 | 1013.8 |
| 20260507093303 | 28 | 309 | 0.0 | 0.0 | 0.00 | 0.00 | 0.00 | 76 | 1013.8 |
| 20260507092803 | 28 | 309 | 0.0 | 0.0 | 0.00 | 0.00 | 0.00 | 76 | 1013.9 |
| 20260507092306 | 28 | 309 | 0.0 | 0.0 | 0.00 | 0.00 | 0.00 | 76 | 1013.9 |
| 20260507091803 | 28 | 309 | 0.0 | 0.0 | 0.00 | 0.00 | 0.00 | 76 | 1013.8 |
| 20260507091303 | 28 | 309 | 0.0 | 0.0 | 0.00 | 0.00 | 0.00 | 76 | 1013.8 |
| 20260507090803 | 28 | 309 | 0.0 | 0.0 | 0.00 | 0.00 | 0.00 | 76 | 1013.8 |
| 20260507090303 | 28 | 309 | 0.0 | 0.0 | 0.00 | 0.00 | 0.00 | 76 | 1013.9 |
| 20260507085803 | 28 | 309 | 0.0 | 0.0 | 0.00 | 0.00 | 0.00 | 70 | 1013.8 |
| 20260507085306 | 29 | 309 | 0.0 | 0.0 | 0.00 | 0.00 | 0.00 | 70 | 1013.8 |
| 20260507084803 | 29 | 309 | 0.0 | 0.0 | 0.00 | 0.00 | 0.00 | 70 | 1013.9 |
| 20260507084303 | 29 | 309 | 0.0 | 0.0 | 0.00 | 0.00 | 0.00 | 70 | 1013.9 |
| 20260507083803 | 29 | 309 | 0.0 | 0.0 | 0.00 | 0.00 | 0.00 | 70 | 1013.9 |
| 20260507083303 | 29 | 309 | 0.0 | 0.0 | 0.00 | 0.00 | 0.00 | 70 | 1013.9 |
| 20260507082803 | 29 | 309 | 0.0 | 0.0 | 0.00 | 0.00 | 0.00 | 70 | 1014.0 |
| 20260507082306 | 29 | 309 | 0.0 | 0.0 | 0.00 | 0.00 | 0.00 | 70 | 1014.1 |
| 20260507081803 | 29 | 309 | 0.0 | 0.0 | 0.00 | 0.00 | 0.00 | 70 | 1014.0 |
| 20260507081304 | 29 | 309 | 0.0 | 0.0 | 0.00 | 0.00 | 0.00 | 70 | 1014.0 |
| 20260507080303 | 30 | 309 | 0.0 | 0.0 | 0.00 | 0.00 | 0.00 | 70 | 1014.0 |
| 20260507075803 | 30 | 309 | 0.0 | 0.0 | 0.00 | 0.00 | 0.00 | 76 | 1014.0 |
| 20260507074803 | 30 | 309 | 0.0 | 0.0 | 0.00 | 0.00 | 0.00 | 76 | 1014.0 |
| 20260507074303 | 31 | 309 | 0.0 | 0.0 | 0.00 | 0.00 | 0.00 | 76 | 1014.0 |
| 20260507073803 | 31 | 309 | 0.0 | 0.0 | 0.00 | 0.00 | 0.00 | 76 | 1014.2 |
| 20260507073304 | 31 | 309 | 0.0 | 0.0 | 0.00 | 0.00 | 0.00 | 76 | 1014.2 |
| 20260507072803 | 31 | 309 | 0.0 | 0.0 | 0.00 | 0.00 | 0.00 | 76 | 1014.3 |
| 20260507071303 | 32 | 309 | 0.0 | 0.0 | 0.00 | 0.00 | 0.00 | 76 | 1014.4 |
| 20260507070804 | 32 | 309 | 0.0 | 0.0 | 0.00 | 0.00 | 0.00 | 76 | 1014.5 |
| 20260507070303 | 32 | 0 | 0.0 | 0.0 | 0.00 | 0.00 | 0.00 | 76 | 1014.5 |
| 20260507065803 | 33 | 0 | 0.0 | 0.0 | 0.00 | 0.00 | 0.00 | 67 | 1014.6 |
| 20260507065305 | 33 | 0 | 0.0 | 0.0 | 0.00 | 0.00 | 0.00 | 67 | 1014.6 |
| 20260507064803 | 33 | 0 | 0.0 | 0.0 | 0.00 | 0.00 | 0.00 | 67 | 1014.6 |
| 20260507064303 | 33 | 0 | 0.0 | 0.0 | 0.00 | 0.00 | 0.00 | 67 | 1014.7 |
| 20260507063803 | 33 | 0 | 0.0 | 0.0 | 0.00 | 0.00 | 0.00 | 67 | 1014.7 |
| 20260507062305 | 33 | 0 | 0.0 | 0.0 | 0.00 | 0.00 | 0.00 | 67 | 1014.8 |
| 20260507061803 | 33 | 333 | 0.0 | 0.0 | 0.00 | 0.00 | 0.00 | 67 | 1014.8 |
| 20260507061303 | 33 | 324 | 0.0 | 0.0 | 0.00 | 0.00 | 0.00 | 67 | 1014.8 |
| 20260507060303 | 33 | 311 | 0.0 | 0.0 | 0.00 | 0.00 | 0.00 | 67 | 1014.9 |
| 20260507055802 | 33 | 311 | 0.0 | 0.0 | 0.00 | 0.00 | 0.00 | 61 | 1014.9 |
| 20260507055306 | 33 | 311 | 0.0 | 0.0 | 0.00 | 0.00 | 0.00 | 61 | 1015.0 |
| 20260507054303 | 33 | 311 | 0.0 | 0.0 | 0.00 | 0.00 | 0.00 | 61 | 1015.0 |
| 20260507053303 | 33 | 311 | 0.0 | 0.0 | 0.00 | 0.00 | 0.00 | 61 | 1014.9 |
| 20260507052803 | 33 | 311 | 0.0 | 0.0 | 0.00 | 0.00 | 0.00 | 61 | 1014.9 |
| 20260507052306 | 33 | 310 | 0.0 | 0.0 | 0.00 | 0.00 | 0.00 | 61 | 1014.9 |
| 20260507051803 | 33 | 310 | 0.0 | 0.0 | 0.00 | 0.00 | 0.00 | 61 | 1014.9 |
| 20260507051303 | 33 | 310 | 0.0 | 0.0 | 0.00 | 0.00 | 0.00 | 61 | 1014.8 |
| 20260507050812 | 33 | 310 | 0.0 | 0.0 | 0.00 | 0.00 | 0.00 | 61 | 1014.9 |
| 20260507045802 | 32 | 310 | 0.0 | 0.0 | 0.00 | 0.00 | 0.00 | 57 | 1014.9 |
| 20260507045306 | 32 | 310 | 0.0 | 0.0 | 0.00 | 0.00 | 0.00 | 57 | 1015.0 |
| 20260507044303 | 32 | 310 | 0.0 | 0.0 | 0.00 | 0.00 | 0.00 | 57 | 1015.1 |
| 20260507042803 | 32 | 309 | 0.0 | 0.0 | 0.00 | 0.00 | 0.00 | 57 | 1015.1 |
| 20260507042306 | 31 | 309 | 0.0 | 0.0 | 0.00 | 0.00 | 0.00 | 57 | 1015.2 |
| 20260507041803 | 31 | 309 | 0.0 | 0.0 | 0.00 | 0.00 | 0.00 | 57 | 1015.3 |
| 20260507040303 | 32 | 309 | 0.0 | 0.0 | 0.00 | 0.00 | 0.00 | 57 | 1015.3 |
| 20260507035803 | 32 | 309 | 0.0 | 0.0 | 0.00 | 0.00 | 0.00 | 60 | 1015.4 |
| 20260507035306 | 32 | 309 | 0.0 | 0.0 | 0.00 | 0.00 | 0.00 | 60 | 1015.4 |
| 20260507034803 | 33 | 309 | 0.0 | 0.0 | 0.00 | 0.00 | 0.00 | 60 | 1015.5 |
| 20260507034303 | 33 | 309 | 0.0 | 0.0 | 0.00 | 0.00 | 0.00 | 60 | 1015.5 |
| 20260507033803 | 33 | 309 | 0.0 | 0.0 | 0.00 | 0.00 | 0.00 | 60 | 1015.5 |
| 20260507033304 | 33 | 308 | 0.0 | 0.0 | 0.00 | 0.00 | 0.00 | 60 | 1015.5 |
| 20260507032803 | 34 | 308 | 0.0 | 0.0 | 0.00 | 0.00 | 0.00 | 60 | 1015.5 |
| 20260507032305 | 34 | 311 | 0.0 | 0.0 | 0.00 | 0.00 | 0.00 | 60 | 1015.5 |
| 20260507031303 | 35 | 313 | 0.0 | 0.0 | 0.00 | 0.00 | 0.00 | 60 | 1015.6 |
| 20260507030803 | 35 | 312 | 0.0 | 0.0 | 0.00 | 0.00 | 0.00 | 60 | 1015.6 |
| 20260507030303 | 35 | 312 | 0.0 | 0.0 | 0.00 | 0.00 | 0.00 | 60 | 1015.6 |
| 20260507025306 | 35 | 313 | 0.0 | 0.0 | 0.00 | 0.00 | 0.00 | 51 | 1015.6 |
| 20260507024803 | 35 | 312 | 0.0 | 0.0 | 0.00 | 0.00 | 0.00 | 51 | 1015.6 |
| 20260507024303 | 36 | 311 | 0.0 | 0.0 | 0.00 | 0.00 | 0.00 | 51 | 1015.6 |
| 20260507023803 | 36 | 313 | 0.0 | 0.0 | 0.00 | 0.00 | 0.00 | 51 | 1015.7 |
| 20260507022803 | 36 | 312 | 0.0 | 0.0 | 0.00 | 0.00 | 0.00 | 51 | 1015.7 |
| 20260507022306 | 37 | 327 | 0.0 | 0.0 | 0.00 | 0.00 | 0.00 | 51 | 1015.6 |
| 20260507021803 | 37 | 321 | 0.0 | 0.0 | 0.00 | 0.00 | 0.00 | 51 | 1015.6 |
| 20260507021304 | 37 | 320 | 0.0 | 0.0 | 0.00 | 0.00 | 0.00 | 51 | 1015.6 |
| 20260507020803 | 38 | 331 | 0.0 | 0.0 | 0.00 | 0.00 | 0.00 | 51 | 1015.5 |
| 20260507020303 | 38 | 0 | 0.0 | 0.0 | 0.00 | 0.00 | 0.00 | 51 | 1015.5 |
| 20260507015803 | 39 | 340 | 0.0 | 0.0 | 0.00 | 0.00 | 0.00 | 43 | 1015.5 |
| 20260507014303 | 41 | 306 | 0.0 | 0.0 | 0.00 | 0.00 | 0.00 | 43 | 1015.4 |
| 20260507013804 | 42 | 302 | 0.0 | 0.0 | 0.00 | 0.00 | 0.00 | 43 | 1015.4 |
| 20260507013303 | 43 | 302 | 0.0 | 2.6 | 0.00 | 0.00 | 0.00 | 43 | 1015.5 |
| 20260507012803 | 43 | 344 | 0.9 | 2.6 | 0.00 | 0.00 | 0.00 | 43 | 1015.6 |
| 20260507012306 | 43 | 341 | 1.7 | 4.3 | 0.00 | 0.00 | 0.00 | 43 | 1015.7 |
| 20260507011803 | 43 | 319 | 0.9 | 2.6 | 0.00 | 0.00 | 0.00 | 43 | 1015.7 |
| 20260507011303 | 43 | 320 | 1.7 | 5.2 | 0.00 | 0.00 | 0.00 | 43 | 1015.7 |
| 20260507010803 | 43 | 322 | 1.7 | 4.3 | 0.00 | 0.00 | 0.00 | 43 | 1015.6 |
| 20260507010304 | 44 | 330 | 1.7 | 4.3 | 0.00 | 0.00 | 0.00 | 43 | 1015.6 |
| 20260507005803 | 44 | 322 | 0.9 | 2.6 | 0.00 | 0.00 | 0.00 | 42 | 1015.6 |
| 20260507005305 | 44 | 305 | 1.7 | 2.6 | 0.00 | 0.00 | 0.00 | 42 | 1015.5 |
| 20260507004803 | 44 | 331 | 1.7 | 5.2 | 0.00 | 0.00 | 0.00 | 42 | 1015.5 |
| 20260507004303 | 44 | 302 | 1.7 | 4.3 | 0.00 | 0.00 | 0.00 | 42 | 1015.6 |
| 20260507003803 | 44 | 310 | 2.6 | 7.0 | 0.00 | 0.00 | 0.00 | 42 | 1015.5 |
| 20260507003303 | 44 | 310 | 2.6 | 7.0 | 0.00 | 0.00 | 0.00 | 42 | 1015.5 |
| 20260507002803 | 44 | 312 | 5.2 | 8.7 | 0.00 | 0.00 | 0.00 | 42 | 1015.5 |
| 20260507002306 | 44 | 304 | 2.6 | 6.1 | 0.00 | 0.00 | 0.00 | 42 | 1015.5 |
| 20260507001803 | 44 | 258 | 2.6 | 8.7 | 0.00 | 0.00 | 0.00 | 42 | 1015.5 |
| 20260507001304 | 45 | 249 | 3.5 | 10.4 | 0.00 | 0.00 | 0.00 | 42 | 1015.5 |
| 20260507000803 | 45 | 262 | 3.5 | 7.8 | 0.00 | 0.00 | 0.00 | 42 | 1015.5 |
| 20260507000303 | 45 | 354 | 3.5 | 7.8 | 0.00 | 0.00 | 0.00 | 42 | 1015.5 |
| 20260506235803 | 45 | 309 | 2.6 | 6.1 | 0.00 | 0.00 | 0.00 | 41 | 1015.5 |
| 20260506235306 | 45 | 243 | 2.6 | 7.8 | 0.00 | 0.00 | 0.00 | 41 | 1015.5 |
| 20260506234803 | 45 | 321 | 3.5 | 7.8 | 0.00 | 0.00 | 0.00 | 41 | 1015.5 |
| 20260506234303 | 45 | 309 | 5.2 | 11.3 | 0.00 | 0.00 | 0.00 | 41 | 1015.5 |
| 20260506233803 | 45 | 301 | 4.3 | 13.0 | 0.00 | 0.00 | 0.00 | 41 | 1015.6 |
| 20260506233303 | 45 | 325 | 6.1 | 12.2 | 0.00 | 0.00 | 0.00 | 41 | 1015.6 |
| 20260506232803 | 45 | 344 | 6.1 | 10.4 | 0.00 | 0.00 | 0.00 | 41 | 1015.5 |
| 20260506232306 | 45 | 329 | 2.6 | 7.8 | 0.00 | 0.00 | 0.00 | 41 | 1015.5 |
| 20260506231803 | 45 | 301 | 7.0 | 10.4 | 0.00 | 0.00 | 0.00 | 41 | 1015.6 |
| 20260506230803 | 45 | 258 | 6.1 | 10.4 | 0.00 | 0.00 | 0.00 | 41 | 1015.7 |
| 20260506230304 | 46 | 292 | 4.3 | 10.4 | 0.00 | 0.00 | 0.00 | 41 | 1015.6 |
| 20260506225803 | 46 | 282 | 7.0 | 13.9 | 0.00 | 0.00 | 0.00 | 42 | 1015.6 |
| 20260506225305 | 46 | 285 | 6.1 | 12.2 | 0.00 | 0.00 | 0.00 | 42 | 1015.6 |
| 20260506224303 | 46 | 261 | 6.1 | 11.3 | 0.00 | 0.00 | 0.00 | 42 | 1015.7 |
| 20260506223803 | 45 | 285 | 6.1 | 11.3 | 0.00 | 0.00 | 0.00 | 42 | 1015.8 |
| 20260506223303 | 46 | 281 | 5.2 | 14.8 | 0.00 | 0.00 | 0.00 | 42 | 1015.8 |
| 20260506222306 | 45 | 283 | 4.3 | 10.4 | 0.00 | 0.00 | 0.00 | 42 | 1015.8 |
| 20260506221303 | 46 | 289 | 4.3 | 8.7 | 0.00 | 0.00 | 0.00 | 42 | 1015.8 |
| 20260506220303 | 45 | 297 | 6.1 | 11.3 | 0.00 | 0.00 | 0.00 | 42 | 1015.9 |
| 20260506215803 | 45 | 286 | 5.2 | 10.4 | 0.00 | 0.00 | 0.00 | 47 | 1015.9 |
| 20260506215305 | 45 | 288 | 5.2 | 10.4 | 0.00 | 0.00 | 0.00 | 47 | 1016.0 |
| 20260506214804 | 45 | 301 | 5.2 | 10.4 | 0.00 | 0.00 | 0.00 | 47 | 1016.0 |
| 20260506213803 | 45 | 324 | 4.3 | 10.4 | 0.00 | 0.00 | 0.00 | 47 | 1016.0 |
| 20260506213303 | 45 | 358 | 6.1 | 13.9 | 0.00 | 0.00 | 0.00 | 47 | 1016.0 |
| 20260506212803 | 45 | 0 | 5.2 | 10.4 | 0.00 | 0.00 | 0.00 | 47 | 1016.0 |
| 20260506212306 | 44 | 0 | 5.2 | 11.3 | 0.00 | 0.00 | 0.00 | 47 | 1016.1 |
| 20260506211803 | 45 | 0 | 6.1 | 12.2 | 0.00 | 0.00 | 0.00 | 47 | 1016.1 |
| 20260506211303 | 44 | 0 | 7.0 | 13.0 | 0.00 | 0.00 | 0.00 | 47 | 1016.2 |
| 20260506210803 | 44 | 292 | 5.2 | 11.3 | 0.00 | 0.00 | 0.00 | 47 | 1016.2 |
| 20260506210303 | 44 | 315 | 6.1 | 11.3 | 0.00 | 0.00 | 0.00 | 47 | 1016.3 |
| 20260506205803 | 44 | 334 | 6.1 | 13.0 | 0.00 | 0.00 | 0.00 | 48 | 1016.4 |
| 20260506205306 | 44 | 311 | 4.3 | 8.7 | 0.00 | 0.00 | 0.00 | 48 | 1016.4 |
| 20260506204803 | 44 | 297 | 4.3 | 12.2 | 0.00 | 0.00 | 0.00 | 48 | 1016.4 |
| 20260506204304 | 44 | 335 | 5.2 | 10.4 | 0.00 | 0.00 | 0.00 | 48 | 1016.4 |
| 20260506203804 | 44 | 335 | 4.3 | 7.8 | 0.00 | 0.00 | 0.00 | 48 | 1016.4 |
| 20260506203303 | 44 | 297 | 5.2 | 10.4 | 0.00 | 0.00 | 0.00 | 48 | 1016.4 |
| 20260506202803 | 44 | 301 | 6.1 | 11.3 | 0.00 | 0.00 | 0.00 | 48 | 1016.5 |
| 20260506202306 | 44 | 280 | 4.3 | 12.2 | 0.00 | 0.00 | 0.00 | 48 | 1016.5 |
| 20260506201303 | 43 | 323 | 6.1 | 12.2 | 0.00 | 0.00 | 0.00 | 48 | 1016.5 |
| 20260506200803 | 43 | 306 | 5.2 | 13.9 | 0.00 | 0.00 | 0.00 | 48 | 1016.5 |
| 20260506200303 | 43 | 0 | 5.2 | 12.2 | 0.00 | 0.00 | 0.00 | 48 | 1016.5 |
| 20260506195803 | 43 | 0 | 4.3 | 11.3 | 0.00 | 0.00 | 0.00 | 49 | 1016.5 |
| 20260506195306 | 43 | 0 | 6.1 | 14.8 | 0.00 | 0.00 | 0.00 | 49 | 1016.5 |
| 20260506194803 | 43 | 314 | 6.1 | 13.9 | 0.00 | 0.00 | 0.00 | 49 | 1016.5 |
| 20260506193803 | 44 | 317 | 5.2 | 13.9 | 0.00 | 0.00 | 0.00 | 49 | 1016.6 |
| 20260506193303 | 43 | 282 | 5.2 | 17.4 | 0.00 | 0.00 | 0.00 | 49 | 1016.6 |
| 20260506192804 | 43 | 0 | 6.1 | 12.2 | 0.00 | 0.00 | 0.00 | 49 | 1016.7 |
| 20260506192305 | 43 | 322 | 6.1 | 10.4 | 0.00 | 0.00 | 0.00 | 49 | 1016.7 |
| 20260506191803 | 43 | 237 | 3.5 | 13.0 | 0.00 | 0.00 | 0.00 | 49 | 1016.7 |
| 20260506191304 | 43 | 273 | 4.3 | 12.2 | 0.00 | 0.00 | 0.00 | 49 | 1016.7 |
| 20260506190803 | 43 | 270 | 6.1 | 14.8 | 0.00 | 0.00 | 0.00 | 49 | 1016.7 |
| 20260506190303 | 43 | 313 | 4.3 | 12.2 | 0.00 | 0.00 | 0.00 | 49 | 1016.7 |
| 20260506185803 | 43 | 293 | 4.3 | 10.4 | 0.00 | 0.00 | 0.00 | 50 | 1016.7 |
| 20260506185306 | 42 | 306 | 6.1 | 11.3 | 0.00 | 0.00 | 0.00 | 50 | 1016.8 |
| 20260506184303 | 42 | 281 | 6.1 | 10.4 | 0.00 | 0.00 | 0.00 | 50 | 1016.8 |
| 20260506183803 | 42 | 279 | 6.1 | 13.0 | 0.00 | 0.00 | 0.00 | 50 | 1016.8 |
| 20260506183303 | 42 | 277 | 5.2 | 10.4 | 0.00 | 0.00 | 0.00 | 50 | 1016.7 |
| 20260506182803 | 42 | 282 | 5.2 | 11.3 | 0.00 | 0.00 | 0.00 | 50 | 1016.7 |
| 20260506182306 | 42 | 299 | 6.1 | 11.3 | 0.00 | 0.00 | 0.00 | 50 | 1016.8 |
| 20260506181803 | 42 | 257 | 7.8 | 15.6 | 0.00 | 0.00 | 0.00 | 50 | 1016.8 |
| 20260506181303 | 43 | 292 | 6.1 | 15.6 | 0.00 | 0.00 | 0.00 | 50 | 1016.7 |
| 20260506180303 | 42 | 244 | 5.2 | 10.4 | 0.00 | 0.00 | 0.00 | 50 | 1016.8 |
| 20260506175306 | 42 | 297 | 4.3 | 10.4 | 0.00 | 0.00 | 0.00 | 52 | 1016.7 |
| 20260506174803 | 42 | 295 | 6.1 | 12.2 | 0.00 | 0.00 | 0.00 | 52 | 1016.8 |
| 20260506174303 | 42 | 275 | 4.3 | 8.7 | 0.00 | 0.00 | 0.00 | 52 | 1016.7 |
| 20260506173803 | 42 | 301 | 5.2 | 10.4 | 0.00 | 0.00 | 0.00 | 52 | 1016.7 |
| 20260506172803 | 42 | 258 | 6.1 | 11.3 | 0.00 | 0.00 | 0.00 | 52 | 1016.8 |
| 20260506171803 | 42 | 284 | 7.8 | 13.0 | 0.00 | 0.00 | 0.00 | 52 | 1016.9 |
| 20260506171304 | 42 | 250 | 7.0 | 13.0 | 0.00 | 0.00 | 0.00 | 52 | 1016.9 |
| 20260506170803 | 43 | 263 | 6.1 | 11.3 | 0.00 | 0.00 | 0.00 | 52 | 1016.8 |
| 20260506170303 | 43 | 0 | 6.1 | 12.2 | 0.00 | 0.00 | 0.00 | 52 | 1017.0 |
| 20260506165803 | 42 | 359 | 4.3 | 14.8 | 0.00 | 0.00 | 0.00 | 53 | 1016.9 |
| 20260506165305 | 42 | 272 | 4.3 | 10.4 | 0.00 | 0.00 | 0.00 | 53 | 1017.0 |
| 20260506164303 | 41 | 269 | 7.0 | 12.2 | 0.00 | 0.00 | 0.00 | 53 | 1017.0 |
| 20260506163303 | 41 | 284 | 6.1 | 12.2 | 0.00 | 0.00 | 0.00 | 53 | 1017.0 |
| 20260506162803 | 41 | 277 | 6.1 | 10.4 | 0.00 | 0.00 | 0.00 | 53 | 1017.0 |
| 20260506162306 | 41 | 247 | 7.0 | 13.0 | 0.00 | 0.00 | 0.00 | 53 | 1017.0 |
| 20260506161803 | 41 | 258 | 6.1 | 17.4 | 0.00 | 0.00 | 0.00 | 53 | 1017.0 |
| 20260506161303 | 41 | 292 | 4.3 | 10.4 | 0.00 | 0.00 | 0.00 | 53 | 1017.0 |
| 20260506160803 | 41 | 266 | 5.2 | 13.9 | 0.00 | 0.00 | 0.00 | 53 | 1017.0 |
| 20260506160303 | 41 | 252 | 7.0 | 13.0 | 0.00 | 0.00 | 0.00 | 53 | 1016.9 |
| 20260506155803 | 41 | 256 | 6.1 | 12.2 | 0.00 | 0.00 | 0.00 | 58 | 1016.9 |
| 20260506155306 | 41 | 274 | 3.5 | 12.2 | 0.00 | 0.00 | 0.00 | 58 | 1016.8 |
| 20260506154803 | 41 | 259 | 3.5 | 8.7 | 0.00 | 0.00 | 0.00 | 58 | 1016.8 |
| 20260506153803 | 41 | 253 | 2.6 | 11.3 | 0.00 | 0.00 | 0.00 | 58 | 1016.8 |
| 20260506153303 | 41 | 267 | 5.2 | 10.4 | 0.00 | 0.00 | 0.00 | 58 | 1016.7 |
| 20260506152305 | 41 | 273 | 7.8 | 13.9 | 0.00 | 0.00 | 0.00 | 58 | 1016.7 |
| 20260506151803 | 41 | 276 | 5.2 | 10.4 | 0.00 | 0.00 | 0.00 | 58 | 1016.7 |
| 20260506151303 | 41 | 244 | 5.2 | 10.4 | 0.00 | 0.00 | 0.00 | 58 | 1016.7 |
| 20260506150304 | 41 | 287 | 4.3 | 10.4 | 0.00 | 0.00 | 0.00 | 58 | 1016.7 |
| 20260506144803 | 41 | 283 | 5.2 | 11.3 | 0.00 | 0.00 | 0.00 | 61 | 1016.6 |
| 20260506144303 | 41 | 260 | 4.3 | 10.4 | 0.00 | 0.00 | 0.00 | 61 | 1016.7 |
| 20260506143803 | 41 | 259 | 5.2 | 8.7 | 0.00 | 0.00 | 0.00 | 61 | 1016.7 |
| 20260506143303 | 40 | 259 | 6.1 | 11.3 | 0.00 | 0.00 | 0.00 | 61 | 1016.8 |
| 20260506142803 | 40 | 302 | 5.2 | 11.3 | 0.00 | 0.00 | 0.00 | 61 | 1016.7 |
| 20260506142306 | 41 | 339 | 6.1 | 10.4 | 0.00 | 0.00 | 0.00 | 61 | 1016.7 |
| 20260506141803 | 41 | 346 | 5.2 | 10.4 | 0.00 | 0.00 | 0.00 | 61 | 1016.6 |
| 20260506141303 | 40 | 350 | 2.6 | 11.3 | 0.00 | 0.00 | 0.00 | 61 | 1016.6 |
| 20260506140803 | 41 | 268 | 7.0 | 11.3 | 0.00 | 0.00 | 0.00 | 61 | 1016.6 |
| 20260506140303 | 41 | 251 | 6.1 | 10.4 | 0.00 | 0.00 | 0.00 | 61 | 1016.5 |